GSAT0204 (GALILEO 8)

Last updated on Fri Dec 12 2025 00:02:35 GMT+0000 (Coordinated Universal Time)

1 40545U 15017B 25345.17470308 -.00000088 00000+0 00000+0 0 9996 2 40545 56.8530 346.7403 0006249 262.7650 97.1808 1.70475574 29041
UTC large
Height (km)
Speed (km/s)
/
Latitude / Longitude
Inclination (degrees)
Orbital Period (minutes)
Azimuth
Elevation
Range (km)
Doppler Factor

Next 0 passes for location: London (51.5072 / 0.1276)

Sorry there are no passes over London.